Lihue, HI

10:22 PM HST on October 17, 2017 (GMT -1000)
Lihue

Weather History for PHLI - May, 2014

Change the Weather History Date:

Wednesday, May 28, 2014

  Actual Average Record
Temperature  
Mean Temperature 78 °F 77 °F  
Max Temperature 82 °F 82 °F 85 °F (1960)
Min Temperature 74 °F 72 °F 64 °F (1983)
Degree Days  
Heating Degree Days 0 0  
Month to date heating degree days 0 0  
Since 1 July heating degree days 0 0  
Cooling Degree Days 13 12  
Month to date cooling degree days 306 300  
Year to date cooling degree days 1182 1204  
Growing Degree Days 28 (Base 50)    
Moisture  
Dew Point 70 °F    
Average Humidity 76    
Maximum Humidity 82    
Minimum Humidity 69    
Precipitation  
Precipitation T in 0.05 in 2.55 in (1980)
Month to date precipitation 2.76 1.92  
Year to date precipitation 15.74 15.69  
Snow  
Snow 0.00 in - - ()
Month to date snowfall 0.0  
Since 1 July snowfall 0.0  
Snow Depth 0.00 in    
Sea Level Pressure  
Sea Level Pressure 30.08 in    
Wind  
Wind Speed 16 mph (NE)    
Max Wind Speed 21 mph    
Max Gust Speed 25 mph    
Visibility 10 miles    
Events Rain    
T = Trace of Precipitation, MM = Missing Value Source: NWS Daily Summary

Daily Weather History Graph

Daily Weather History Graph

Search for Another Location

Airport or City:

Trip Planner

Search our weather history database for the weather conditions in past years. The results will help you decide how hot, cold, wet, or windy it might be!

Date:

Astronomy

May. 28, 2014 Rise Set
Actual Time 5:54 AM HST 7:15 PM HST
Civil Twilight 5:29 AM HST 7:40 PM HST
Nautical Twilight 5:00 AM HST 8:09 PM HST
Astronomical Twilight 4:30 AM HST 8:39 PM HST
Moon 6:01 AM HST (5/28) 7:30 PM HST (5/28)
Length of Visible Light 14h 10m
Length of Day
13h 21m
New Moon, 0% of the Moon is Illuminated
May 28
New Moon
Jun 5
First Quarter
Jun 12
Full
Jun 19
Last Quarter
Jun 26
New

Hourly Weather History & Observations

Time (HST) Temp. Heat Index Dew Point Humidity Pressure Visibility Wind Dir Wind Speed Gust Speed Precip Events Conditions
12:01 AM 75.2 °F - 69.8 °F 83% 30.11 in 10.0 mi ENE 17.3 mph - N/A   Partly Cloudy
12:26 AM 75.2 °F - 69.8 °F 83% 30.11 in 10.0 mi NE 18.4 mph - N/A   Mostly Cloudy
12:42 AM 75.2 °F - 69.8 °F 83% 30.10 in 10.0 mi NE 18.4 mph - N/A   Scattered Clouds
12:53 AM 75.9 °F - 69.1 °F 79% 30.09 in 10.0 mi ENE 16.1 mph - N/A   Mostly Cloudy
1:13 AM 75.2 °F - 69.8 °F 83% 30.09 in 10.0 mi NE 17.3 mph - N/A   Mostly Cloudy
1:20 AM 75.2 °F - 68.0 °F 78% 30.09 in 10.0 mi NE 18.4 mph - N/A   Mostly Cloudy
1:53 AM 75.0 °F - 69.1 °F 82% 30.08 in 10.0 mi ENE 16.1 mph - 0.00 in Rain Light Rain
2:00 AM 75.2 °F - 69.8 °F 83% 30.08 in 10.0 mi ENE 18.4 mph - 0.00 in   Mostly Cloudy
2:11 AM 75.2 °F - 69.8 °F 83% 30.08 in 10.0 mi ENE 16.1 mph - 0.00 in   Overcast
2:48 AM 75.2 °F - 69.8 °F 83% 30.07 in 10.0 mi NE 17.3 mph - 0.00 in   Mostly Cloudy
2:53 AM 75.2 °F - 69.8 °F 83% 30.07 in 10.0 mi NE 16.1 mph - N/A   Mostly Cloudy
3:24 AM 75.2 °F - 68.0 °F 78% 30.07 in 10.0 mi NE 12.7 mph - N/A   Scattered Clouds
3:53 AM 75.0 °F - 69.1 °F 82% 30.06 in 10.0 mi NE 16.1 mph - N/A   Scattered Clouds
4:00 AM 75.2 °F - 68.0 °F 78% 30.07 in 10.0 mi NE 13.8 mph - N/A   Mostly Cloudy
4:39 AM 75.2 °F - 68.0 °F 78% 30.06 in 10.0 mi NE 18.4 mph - N/A   Mostly Cloudy
4:53 AM 75.0 °F - 69.1 °F 82% 30.06 in 10.0 mi NE 16.1 mph - N/A   Scattered Clouds
5:13 AM 75.2 °F - 68.0 °F 78% 30.07 in 10.0 mi NE 17.3 mph - N/A   Mostly Cloudy
5:20 AM 75.2 °F - 68.0 °F 78% 30.07 in 10.0 mi NE 16.1 mph - N/A   Mostly Cloudy
5:46 AM 75.2 °F - 69.8 °F 83% 30.07 in 10.0 mi NE 17.3 mph 24.2 mph N/A   Overcast
5:53 AM 75.0 °F - 69.1 °F 82% 30.07 in 10.0 mi NE 18.4 mph - N/A   Overcast
6:05 AM 75.2 °F - 69.8 °F 83% 30.08 in 10.0 mi NE 13.8 mph - N/A   Overcast
6:53 AM 77.0 °F - 69.1 °F 76% 30.09 in 10.0 mi NE 15.0 mph - N/A   Mostly Cloudy
7:01 AM 77.0 °F - 69.8 °F 78% 30.09 in 10.0 mi NE 16.1 mph - N/A   Overcast
7:53 AM 77.0 °F - 70.0 °F 79% 30.09 in 10.0 mi NE 17.3 mph - N/A   Partly Cloudy
8:53 AM 79.0 °F - 70.0 °F 74% 30.10 in 10.0 mi NE 16.1 mph - N/A   Mostly Cloudy
9:53 AM 80.1 °F 83.2 °F 70.0 °F 71% 30.12 in 10.0 mi NE 15.0 mph - N/A   Scattered Clouds
10:53 AM 79.0 °F - 71.1 °F 77% 30.11 in 10.0 mi ENE 12.7 mph - N/A   Mostly Cloudy
11:53 AM 80.1 °F 83.6 °F 71.1 °F 74% 30.10 in 10.0 mi NE 16.1 mph - N/A   Scattered Clouds
12:53 PM 80.1 °F 83.2 °F 70.0 °F 71% 30.09 in 10.0 mi NE 15.0 mph - N/A   Mostly Cloudy
1:20 PM 80.6 °F 84.6 °F 71.6 °F 74% 30.09 in 10.0 mi NE 13.8 mph - N/A   Scattered Clouds
1:53 PM 81.0 °F 84.9 °F 71.1 °F 72% 30.07 in 10.0 mi NE 13.8 mph - N/A   Partly Cloudy
2:12 PM 80.6 °F 84.6 °F 71.6 °F 74% 30.08 in 10.0 mi NE 16.1 mph - N/A   Mostly Cloudy
2:24 PM 82.4 °F 87.2 °F 71.6 °F 70% 30.07 in 10.0 mi NE 13.8 mph - N/A   Scattered Clouds
2:53 PM 81.0 °F 84.4 °F 70.0 °F 69% 30.06 in 10.0 mi NE 15.0 mph - N/A   Partly Cloudy
3:53 PM 80.1 °F 83.2 °F 70.0 °F 71% 30.05 in 10.0 mi NE 16.1 mph - N/A   Scattered Clouds
4:53 PM 79.0 °F - 70.0 °F 74% 30.04 in 10.0 mi NNE 12.7 mph - N/A   Clear
5:53 PM 78.1 °F - 70.0 °F 76% 30.04 in 10.0 mi NE 17.3 mph - N/A   Scattered Clouds
6:53 PM 75.0 °F - 70.0 °F 84% 30.06 in 10.0 mi ENE 16.1 mph - 0.01 in   Scattered Clouds
7:53 PM 75.9 °F - 70.0 °F 82% 30.07 in 10.0 mi ENE 16.1 mph - N/A   Overcast
8:53 PM 75.0 °F - 70.0 °F 84% 30.08 in 10.0 mi ENE 15.0 mph - N/A   Scattered Clouds
9:53 PM 75.2 °F - 69.8 °F 83% 30.10 in 10.0 mi NE 16.1 mph - N/A   Scattered Clouds
10:05 PM 75.2 °F - 69.8 °F 83% 30.10 in 10.0 mi NE 17.3 mph - N/A   Mostly Cloudy
10:53 PM 75.0 °F - 69.1 °F 82% 30.09 in 10.0 mi NE 17.3 mph - N/A   Mostly Cloudy
11:03 PM 75.2 °F - 68.0 °F 78% 30.10 in 10.0 mi NE 16.1 mph - N/A   Scattered Clouds
11:26 PM 75.2 °F - 69.8 °F 83% 30.09 in 10.0 mi NE 15.0 mph - N/A   Mostly Cloudy
11:37 PM 75.2 °F - 69.8 °F 83% 30.09 in 10.0 mi NE 15.0 mph - N/A   Mostly Cloudy
11:48 PM 73.4 °F - 69.8 °F 88% 30.09 in 6.0 mi East 19.6 mph 26.5 mph 0.02 in Rain Light Rain
11:53 PM 73.0 °F - 68.0 °F 84% 30.08 in 7.0 mi East 10.4 mph - 0.02 in Rain Light Rain